Sierra Vista, AZ

3:49 PM MST on March 22, 2017 (GMT -0700)
Sierra Vista Municipal-Libby Army Air Field

Weather History for KFHU - October, 2012

Change the Weather History Date:

Tuesday, October 9, 2012

  Actual Average Record
Temperature  
Mean Temperature 70 °F -  
Max Temperature 82 °F 80 °F 93 °F (1996)
Min Temperature 57 °F 58 °F 44 °F (1982)
Cooling Degree Days 4    
Growing Degree Days 20 (Base 50)    
Moisture  
Dew Point 31 °F    
Average Humidity 25    
Maximum Humidity 36    
Minimum Humidity 15    
Precipitation  
Precipitation 0.00 in - - ()
Sea Level Pressure  
Sea Level Pressure 29.95 in    
Wind  
Wind Speed 4 mph (West)    
Max Wind Speed 13 mph    
Max Gust Speed -    
Visibility 10 miles    
Events      
Averages and records for this station are not official NWS values.
T = Trace of Precipitation, MM = Missing Value Source: NWS Daily Summary

Daily Weather History Graph

Daily Weather History Graph

Search for Another Location

Airport or City:

Trip Planner

Search our weather history database for the weather conditions in past years. The results will help you decide how hot, cold, wet, or windy it might be!

Date:

Astronomy

Oct. 09, 2012 Rise Set
Actual Time 6:20 AM MST 5:55 PM MST
Civil Twilight 5:56 AM MST 6:20 PM MST
Nautical Twilight 5:28 AM MST 6:48 PM MST
Astronomical Twilight 4:59 AM MST 7:16 PM MST
Moon 12:22 AM MST (10/9) 2:05 PM MST (10/9)
Length of Visible Light 12h 23m
Length of Day
11h 34m
Waning Crescent, 35% of the Moon is Illuminated
Oct 9
Waning Crescent
Oct 15
New
Oct 21
First Quarter
Oct 29
Full
Nov 6
Last Quarter

Hourly Weather History & Observations

Time (MST) Temp. Dew Point Humidity Pressure Visibility Wind Dir Wind Speed Gust Speed Precip Events Conditions
12:56 AM 64.0 °F 30.9 °F 29% 29.96 in 10.0 mi Calm Calm - N/A   Clear
1:56 AM 63.0 °F 32.0 °F 31% 29.95 in 10.0 mi Variable 3.5 mph - N/A   Clear
2:56 AM 61.0 °F 30.9 °F 32% 29.94 in 10.0 mi Variable 3.5 mph - N/A   Clear
3:56 AM 61.0 °F 30.0 °F 31% 29.94 in 10.0 mi SW 3.5 mph - N/A   Clear
4:56 AM 59.0 °F 30.0 °F 33% 29.95 in 10.0 mi Calm Calm - N/A   Clear
5:55 AM 57.2 °F 30.2 °F 36% 29.98 in 10.0 mi Variable 6.9 mph - N/A   Partly Cloudy
6:55 AM 60.8 °F 30.2 °F 31% 29.99 in 10.0 mi Variable 4.6 mph - N/A   Partly Cloudy
7:56 AM 66.2 °F 32.0 °F 28% 29.99 in 10.0 mi Variable 4.6 mph - N/A   Partly Cloudy
8:55 AM 69.8 °F 33.8 °F 27% 29.99 in 10.0 mi Variable 3.5 mph - N/A   Clear
9:55 AM 73.4 °F 30.2 °F 20% 29.98 in 10.0 mi Variable 6.9 mph - N/A   Clear
10:55 AM 75.2 °F 30.2 °F 19% 29.98 in 10.0 mi Variable 4.6 mph - N/A   Clear
11:55 AM 78.8 °F 30.2 °F 17% 29.98 in 10.0 mi Variable 3.5 mph - N/A   Clear
12:55 PM 80.6 °F 30.2 °F 16% 29.94 in 10.0 mi Variable 5.8 mph - N/A   Clear
1:55 PM 80.6 °F 30.2 °F 16% 29.91 in 10.0 mi Variable 4.6 mph - N/A   Clear
2:55 PM 82.4 °F 30.2 °F 15% 29.89 in 10.0 mi Variable 4.6 mph - N/A   Partly Cloudy
3:55 PM 82.4 °F 30.2 °F 15% 29.87 in 10.0 mi West 11.5 mph - N/A   Partly Cloudy
4:55 PM 80.6 °F 28.4 °F 15% 29.88 in 10.0 mi West 11.5 mph - N/A   Clear
5:55 PM 75.2 °F 30.2 °F 19% 29.91 in 10.0 mi West 10.4 mph - N/A   Clear
6:55 PM 73.4 °F 28.4 °F 19% 29.94 in 10.0 mi West 11.5 mph - N/A   Clear
7:55 PM 71.6 °F 35.6 °F 27% 29.94 in 10.0 mi SW 12.7 mph - N/A   Clear
8:55 PM 68.0 °F 35.6 °F 30% 29.95 in 10.0 mi WNW 5.8 mph - N/A   Clear
9:55 PM 64.4 °F 33.8 °F 32% 29.97 in 10.0 mi Calm Calm - N/A   Clear
10:55 PM 64.4 °F 30.2 °F 28% 29.97 in 10.0 mi Calm Calm - N/A   Clear
11:56 PM 63.0 °F 33.1 °F 33% 29.97 in 10.0 mi Calm Calm - N/A   Clear